Regional Weather Roundup
Issued by NWS

Home | Current Version | Previous Version | Graphics & Text | Print | Product List | Glossary On
Versions: 1 2 3 4 5 6 7 8 9 10 11 12 13 14 15 16 17 18 19 20 21 22 23 24 25 26 27 28 29 30 31 32 33 34 35 36 37 38 39 40 41 42 43 44 45 46 47 48 49 50
000
ASUS43 KFSD 261502
RWRSD

WEATHER ROUNDUP FOR SOUTH DAKOTA
NATIONAL WEATHER SERVICE SIOUX FALLS SD
1000 AM CDT FRI MAY 26 2017

NOTE: "FAIR" INDICATES FEW OR NO CLOUDS BELOW 12,000 FEET WITH NO
SIGNIFICANT WEATHER AND/OR OBSTRUCTIONS TO VISIBILITY.


SDZ001>005-009-010-012>017-261600-
NORTHWEST AND NORTH CENTRAL SOUTH DAKOTA

CITY           SKY/WX    TMP DP  RH WIND       PRES   REMARKS
BUFFALO          N/A     56  37  49 NW28      29.81S
FAITH            N/A     57  38  48 NW24G33   29.85S
MOBRIDGE       SUNNY     59  39  47 NW23G33   29.78R
$$

SDZ012>016-024>037-041>051-057-063-072>074-261600-
SOUTHWEST AND SOUTH CENTRAL SOUTH DAKOTA

CITY           SKY/WX    TMP DP  RH WIND       PRES   REMARKS
RAPID CTY ARPT SUNNY     60  34  37 N13       29.91R
PIERRE         SUNNY     60  39  45 NW21G26   29.85R
CUSTER         SUNNY     51  26  37 W6        29.94R
ELLSWORTH AFB  SUNNY     58  34  41 N15       29.90R
PHILIP         SUNNY     62  38  40 NW20G28   29.88S
PINE RIDGE     SUNNY     58  39  49 N5        29.93S
SPEARFISH      FAIR      55  36  47 W13G20    29.93S
WINNER         FAIR      61  42  49 NW15G28   29.89R
$$

SDZ004>011-016>023-039-040-261600-
NORTHEAST SOUTH DAKOTA

CITY           SKY/WX    TMP DP  RH WIND       PRES   REMARKS
ABERDEEN       SUNNY     63  40  42 W16G24    29.78R
WATERTOWN      SUNNY     60  48  64 W8        29.77R
BROOKINGS        N/A     61  50  67 VRB7      29.78R
SISSETON         N/A     64  49  57 NW14      29.72R
$$

SDZ017-020-022-023-036>040-048>070-261600-
SOUTHEAST SOUTH DAKOTA

CITY           SKY/WX    TMP DP  RH WIND       PRES   REMARKS
SIOUX FALLS    MOSUNNY   65  51  60 NW15G21   29.80R
HURON          SUNNY     62  45  53 NW14      29.81R
MITCHELL       SUNNY     65  47  52 NW16      29.83R
YANKTON          N/A     63  48  58 NW16      29.83R
$$

ABBREVIATIONS USED IN REMARKS
   TC - TEMPERATURE IN CELSIUS
  WCI - WIND CHILL INDEX
   HX - HEAT INDEX
  VSB - VISIBILITY




USA.gov is the U.S. government's official web portal to all federal, state and local government web resources and services.